South Haven, MI

12:47 PM EST on December 14, 2017 (GMT -0500)
South Haven

Weather History for KLWA - January, 2014

Change the Weather History Date:

Wednesday, January 1, 2014

  Actual Average (KBEH) Record (KBEH)
Temperature  
Mean Temperature 14 °F -  
Max Temperature 16 °F 32 °F 57 °F (2011)
Min Temperature 11 °F 18 °F -10 °F (1964)
Degree Days  
Heating Degree Days 52    
Moisture  
Dew Point 9 °F    
Average Humidity 83    
Maximum Humidity 91    
Minimum Humidity 78    
Precipitation  
Precipitation 0.00 in - - ()
Sea Level Pressure  
Sea Level Pressure 30.27 in    
Wind  
Wind Speed 7 mph (ENE)    
Max Wind Speed 13 mph    
Max Gust Speed 20 mph    
Visibility 4 miles    
Events Snow    
Averages and records for this station are not official NWS values.
T = Trace of Precipitation, MM = Missing Value Source: NWS Daily Summary

Daily Weather History Graph

Daily Weather History Graph

Search for Another Location

Airport or City:

Trip Planner

Search our weather history database for the weather conditions in past years. The results will help you decide how hot, cold, wet, or windy it might be!

Date:

Astronomy

Jan. 01, 2014 Rise Set
Actual Time 8:14 AM EST 5:23 PM EST
Civil Twilight 7:42 AM EST 5:55 PM EST
Nautical Twilight 7:07 AM EST 6:30 PM EST
Astronomical Twilight 6:33 AM EST 7:04 PM EST
Moon 8:02 AM EST (1/1) 6:09 PM EST (1/1)
Length of Visible Light 10h 12m
Length of Day
9h 09m
New Moon, 0% of the Moon is Illuminated
Jan 1
New Moon
Jan 7
First Quarter
Jan 15
Full
Jan 24
Last Quarter
Jan 30
New

Hourly Weather History & Observations

Time (EST) Temp. Windchill Dew Point Humidity Pressure Visibility Wind Dir Wind Speed Gust Speed Precip Events Conditions
12:15 AM 16.7 °F 11.2 °F 14.4 °F 91% 30.30 in 1.0 mi ESE 3.5 mph - N/A Snow Snow
12:35 AM 16.3 °F 10.8 °F 14.0 °F 90% 30.29 in 1.8 mi East 3.5 mph - N/A Snow Light Snow
12:55 AM 16.0 °F 10.4 °F 13.8 °F 91% 30.28 in 2.0 mi East 3.5 mph - N/A Snow Light Snow
1:15 AM 15.8 °F - 13.6 °F 91% 30.27 in 1.8 mi Calm Calm - N/A Snow Light Snow
1:35 AM 15.6 °F - 13.5 °F 91% 30.27 in 1.8 mi Calm Calm - N/A Snow Light Snow
1:55 AM 15.6 °F - 13.1 °F 90% 30.27 in 2.5 mi Calm Calm - N/A Snow Light Snow
2:15 AM 15.8 °F 8.6 °F 13.3 °F 90% 30.27 in 3.0 mi ENE 4.6 mph - N/A Snow Light Snow
2:35 AM 15.8 °F 6.1 °F 13.1 °F 89% 30.28 in 5.0 mi ENE 6.9 mph - N/A Snow Light Snow
2:55 AM 15.6 °F 5.9 °F 12.4 °F 87% 30.28 in 7.0 mi ENE 6.9 mph - N/A Snow Light Snow
3:15 AM 14.9 °F 3.1 °F 11.1 °F 85% 30.29 in 5.0 mi ENE 9.2 mph - N/A Snow Light Snow
3:35 AM 14.7 °F 3.8 °F 10.9 °F 85% 30.28 in 10.0 mi ENE 8.1 mph - N/A Snow Light Snow
3:55 AM 14.4 °F 4.3 °F 10.2 °F 84% 30.28 in 10.0 mi East 6.9 mph - N/A   Overcast
4:15 AM 14.0 °F 3.9 °F 9.0 °F 80% 30.28 in 10.0 mi East 6.9 mph - N/A   Overcast
4:35 AM 13.8 °F 3.7 °F 8.6 °F 80% 30.28 in 10.0 mi East 6.9 mph - N/A   Overcast
4:55 AM 13.8 °F 1.8 °F 8.6 °F 80% 30.28 in 10.0 mi East 9.2 mph - N/A   Overcast
5:14 AM 13.6 °F 3.5 °F 8.1 °F 78% 30.29 in 10.0 mi East 6.9 mph - N/A   Overcast
5:35 AM 13.6 °F 3.5 °F 8.2 °F 79% 30.29 in 10.0 mi East 6.9 mph - N/A   Overcast
5:55 AM 13.6 °F 3.5 °F 8.4 °F 80% 30.30 in 10.0 mi East 6.9 mph - N/A   Overcast
6:14 AM 13.5 °F 2.2 °F 8.4 °F 80% 30.30 in 10.0 mi ENE 8.1 mph - N/A   Overcast
6:35 AM 13.5 °F 4.4 °F 8.4 °F 80% 30.30 in 10.0 mi ENE 5.8 mph - N/A   Overcast
6:55 AM 13.1 °F 4.0 °F 8.4 °F 82% 30.31 in 10.0 mi ENE 5.8 mph - N/A   Overcast
7:14 AM 12.9 °F 1.6 °F 8.2 °F 82% 30.30 in 10.0 mi ENE 8.1 mph - N/A   Overcast
7:35 AM 12.7 °F 1.4 °F 8.1 °F 82% 30.30 in 10.0 mi ENE 8.1 mph - N/A   Overcast
7:55 AM 12.7 °F 2.4 °F 8.1 °F 82% 30.31 in 10.0 mi ENE 6.9 mph - N/A   Overcast
8:14 AM 12.7 °F 1.4 °F 7.7 °F 80% 30.31 in 10.0 mi ENE 8.1 mph - N/A   Overcast
8:35 AM 12.7 °F 2.4 °F 7.3 °F 79% 30.31 in 7.0 mi ENE 6.9 mph - N/A Snow Light Snow
8:55 AM 12.2 °F 0.7 °F 7.7 °F 82% 30.30 in 1.0 mi ENE 8.1 mph - N/A Snow Light Snow
9:15 AM 12.0 °F 0.5 °F 8.2 °F 85% 30.30 in 0.8 mi East 8.1 mph - N/A Snow Light Snow
9:35 AM 12.0 °F 0.5 °F 8.1 °F 84% 30.31 in 1.2 mi ENE 8.1 mph - N/A Snow Light Snow
9:54 AM 12.0 °F 0.5 °F 8.1 °F 84% 30.32 in 1.2 mi ENE 8.1 mph - N/A Snow Light Snow
10:15 AM 12.0 °F 0.5 °F 8.1 °F 84% 30.32 in 0.8 mi ENE 8.1 mph - N/A Snow Light Snow
10:35 AM 12.0 °F 0.5 °F 8.2 °F 85% 30.33 in 0.8 mi ENE 8.1 mph - N/A Snow Light Snow
10:55 AM 12.2 °F 0.7 °F 8.2 °F 84% 30.33 in 0.8 mi ENE 8.1 mph - N/A Snow Light Snow
11:15 AM 12.2 °F 0.7 °F 8.4 °F 85% 30.32 in 0.8 mi ENE 8.1 mph - N/A Snow Light Snow
11:35 AM 12.2 °F -1.0 °F 7.9 °F 83% 30.32 in 1.0 mi ENE 10.4 mph - N/A Snow Light Snow
11:55 AM 12.2 °F -1.0 °F 7.7 °F 82% 30.31 in 1.0 mi ENE 10.4 mph 16.1 mph N/A Snow Light Snow
12:15 PM 12.2 °F 0.7 °F 8.4 °F 85% 30.29 in 0.8 mi ENE 8.1 mph - N/A Snow Light Snow
12:35 PM 12.6 °F -0.6 °F 8.4 °F 83% 30.28 in 0.8 mi ENE 10.4 mph - N/A Snow Light Snow
12:55 PM 12.6 °F -0.6 °F 8.6 °F 84% 30.28 in 0.8 mi ENE 10.4 mph 16.1 mph N/A Snow Light Snow
1:15 PM 12.9 °F 0.7 °F 9.0 °F 84% 30.27 in 0.5 mi ENE 9.2 mph - N/A Snow Light Snow
1:35 PM 13.1 °F 0.9 °F 9.0 °F 84% 30.27 in 1.0 mi East 9.2 mph - N/A Snow Light Snow
1:55 PM 13.1 °F 1.8 °F 8.6 °F 82% 30.27 in 1.5 mi ENE 8.1 mph - N/A Snow Light Snow
2:15 PM 13.5 °F 5.8 °F 8.8 °F 82% 30.26 in 1.5 mi ENE 4.6 mph - N/A Snow Light Snow
2:35 PM 13.5 °F -0.2 °F 8.4 °F 80% 30.25 in 1.8 mi ENE 11.5 mph 16.1 mph N/A Snow Light Snow
2:55 PM 13.1 °F 1.8 °F 8.6 °F 82% 30.24 in 1.5 mi ENE 8.1 mph - N/A Snow Light Snow
3:14 PM 12.9 °F -0.2 °F 8.6 °F 83% 30.24 in 1.0 mi NE 10.4 mph - N/A Snow Light Snow
3:35 PM 12.6 °F 1.1 °F 8.6 °F 84% 30.24 in 1.2 mi ENE 8.1 mph - N/A Snow Light Snow
3:55 PM 12.9 °F 0.7 °F 8.6 °F 83% 30.24 in 1.5 mi ENE 9.2 mph - N/A Snow Light Snow
4:14 PM 12.9 °F -0.2 °F 8.8 °F 84% 30.24 in 1.2 mi ENE 10.4 mph - N/A Snow Light Snow
4:35 PM 12.6 °F -2.0 °F 7.9 °F 82% 30.24 in 1.5 mi ENE 12.7 mph - N/A Snow Light Snow
4:55 PM 12.4 °F 0.0 °F 8.1 °F 83% 30.25 in 2.0 mi ENE 9.2 mph 18.4 mph N/A Snow Light Snow
5:14 PM 12.2 °F -0.2 °F 8.1 °F 83% 30.25 in 1.5 mi NE 9.2 mph 16.1 mph N/A Snow Light Snow
5:35 PM 12.0 °F -0.4 °F 7.7 °F 83% 30.24 in 1.5 mi ENE 9.2 mph - N/A Snow Light Snow
5:55 PM 11.7 °F 0.0 °F 7.7 °F 84% 30.24 in 2.5 mi ENE 8.1 mph - N/A Snow Light Snow
6:15 PM 11.7 °F -1.7 °F 7.7 °F 84% 30.24 in 2.5 mi ENE 10.4 mph - N/A Snow Light Snow
6:35 PM 11.7 °F -1.7 °F 7.7 °F 84% 30.24 in 2.5 mi ENE 10.4 mph - N/A Snow Light Snow
6:55 PM 11.8 °F 1.3 °F 7.7 °F 83% 30.24 in 3.0 mi ENE 6.9 mph - N/A Snow Light Snow
7:15 PM 11.8 °F -0.7 °F 7.7 °F 83% 30.24 in 3.0 mi ENE 9.2 mph - N/A Snow Light Snow
7:35 PM 11.7 °F 0.0 °F 7.3 °F 83% 30.24 in 4.0 mi ENE 8.1 mph - N/A Snow Light Snow
7:55 PM 11.7 °F 0.0 °F 7.5 °F 83% 30.24 in 3.0 mi ENE 8.1 mph - N/A Snow Light Snow
8:15 PM 11.7 °F 0.0 °F 7.5 °F 83% 30.24 in 3.0 mi ENE 8.1 mph - N/A Snow Light Snow
8:35 PM 11.7 °F -0.9 °F 7.2 °F 82% 30.24 in 4.0 mi ENE 9.2 mph - N/A Snow Light Snow
8:55 PM 11.3 °F -0.4 °F 6.8 °F 82% 30.23 in 4.0 mi ENE 8.1 mph - N/A Snow Light Snow
9:15 PM 11.3 °F -1.3 °F 6.8 °F 82% 30.23 in 7.0 mi ENE 9.2 mph - N/A Snow Light Snow
9:35 PM 11.1 °F -2.4 °F 6.8 °F 83% 30.22 in 7.0 mi ENE 10.4 mph - N/A Snow Light Snow
9:55 PM 11.1 °F -1.6 °F 6.6 °F 82% 30.22 in 10.0 mi ENE 9.2 mph 16.1 mph N/A   Overcast
10:15 PM 11.1 °F -1.6 °F 6.4 °F 81% 30.22 in 10.0 mi ENE 9.2 mph - N/A   Overcast
10:35 PM 11.3 °F -2.2 °F 6.4 °F 81% 30.22 in 7.0 mi East 10.4 mph 16.1 mph N/A Snow Light Snow
10:55 PM 11.3 °F -2.2 °F 6.8 °F 82% 30.21 in 3.0 mi ENE 10.4 mph - N/A Snow Light Snow
11:15 PM 11.3 °F -2.2 °F 6.8 °F 82% 30.20 in 7.0 mi ENE 10.4 mph 17.3 mph N/A   Overcast
11:35 PM 11.5 °F -1.1 °F 6.8 °F 81% 30.20 in 7.0 mi ENE 9.2 mph - N/A   Overcast
11:55 PM 11.7 °F -0.9 °F 6.8 °F 81% 30.19 in 5.0 mi ENE 9.2 mph 19.6 mph N/A   Overcast